Погода в Верхней Тойме

Россия / Архангельская область     62°14′05″N   44°59′56″E
темп.,
°C
ветер,
м/с
пор.,
м/с
влажн.,
%
обл.,
%
осадки,
мм/ч
давл.,
гПа
погр.,
м
11 мая, вт
вт1100:00+5ююв237167 0.0 102743
03:00+5ю2973100 0.0 1027212
06:00+7ю31168100 0.0 1027351
09:00+9ю387097 0.0 1027304
12:00+17юз3753100 0.0 1027978
15:00+19юз485085 0.0 10261525
18:00+19юз495539 0.0 1026750
21:00+13ююз2981100 0.0 1026155
12 мая, ср
ср1200:00+11ююз2118912 0.0 1027223
03:00+10ююз2993100 0.0 1027177
06:00+13ююз2881100 0.0 1028275
09:00+18зюз3656100 0.0 1028637
12:00+23зюз464243 0.0 10271323
15:00+24зюз35375 0.0 10261549
18:00+23ююз234947 0.0 1025117
21:00+16ююз227137 0.0 102614
13 мая, чт
чт1300:00+13ю1176100 0.0 102611
03:00+12ююв12765 0.0 102611
06:00+14ю23630 0.0 1026142
09:00+20ю24490 0.0 1025582
12:00+25ююз364034 0.0 10242375
15:00+24ююз354396 0.0 10221553
18:00+22ю385265 0.0 1021535
21:00+16ю227134 0.0 102118
14 мая, пт
пт1400:00+15юв247659 0.0 101990
03:00+13ююв248758 0.1 101968
06:00+15юв2588100 1.3 1017177
09:00+16ю3887100 1.8 1016610
12:00+17ююз4881100 0.9 1016952
15:00+23юз68395 1.0 10152432
18:00+21юз3743100 0.0 10141159
21:00+15ююз2866100 0.0 1015147
15 мая, сб
сб1500:00+12зюз227670 0.0 101522
03:00+11ююз11785 0.0 101511
06:00+14юз24681 0.0 1015219
09:00+19юз23505 0.0 1015946
12:00+22юз2438100 0.0 10141751
15:00+23ю3442100 0.0 10132162
18:00+21юв2555100 0.0 1012550
21:00+15юв2791100 1.3 1011215